Location: Earls Croome
(52.0667°N, 2.2000°W)
Time: 04:23:32
(UTC+00:00)

Cosmos 1151 Rocket - Pass Details

Date: 17 November 2019
Orbit: 592 x 616 km, 82.5° (Epoch: 11 December)

Event Time Altitude Azimuth Distance (km) Brightness Sun altitude
Exits shadow 05:58:52 - 342° (NNW) 2,584 5.9 -14.0°
Reaches altitude 10° 06:00:24 10° 337° (NNW) 1,987 5.3 -13.8°
Maximum altitude 06:04:32 42° 267° (W) 881 3.4 -13.2°
Drops below altitude 10° 06:08:38 10° 197° (SSW) 1,961 5.6 -12.6°
Sets 06:10:55 0° 190° (S) 2,857 6.5 -12.2°
